Regional Weather Roundup
Issued by NWS

Home | Current Version | Previous Version | Text Only | Print | Product List | Glossary Off
Versions: 1 2 3 4 5 6 7 8 9 10 11 12 13 14 15 16 17 18 19 20 21 22 23 24 25 26 27 28 29 30 31 32 33 34 35 36 37 38 39 40 41 42 43 44 45 46 47 48 49 50

000
ASUS43 KOAX 281310
RWRNE

WEATHER ROUNDUP FOR NEBRASKA
NATIONAL WEATHER SERVICE OMAHA NE
800 AM CDT FRI JUL 28 2017

NOTES: SATELLITE DATA IS BEING USED TO AUGMENT CLOUD COVER ABOVE
       12000 FEET.
       "FAIR" INDICATES FEW OR NO CLOUDS BELOW 12,000 FEET WITH NO
       SIGNIFICANT WEATHER AND/OR OBSTRUCTIONS TO VISIBILITY.


NEZ001>004-019>022-054>056-281400-
NEBRASKA PANHANDLE

CITY           SKY/WX    TMP DP  RH WIND       PRES   REMARKS
SCOTTSBLUFF    CLOUDY    66  61  84 E6        30.10S
ALLIANCE       SUNNY     63  61  93 MISG      30.09F
CHADRON        SUNNY     63  59  87 N6        30.06R
GORDON         FAIR      62  60  92 SE7       30.07R
KIMBALL        CLOUDY    64  63  97 CALM      30.16S
SIDNEY         CLOUDY    65  61  87 SE3       30.14R
$$

NEZ057>060-069>072-079>082-281400-
SOUTHWEST NEBRASKA

CITY           SKY/WX    TMP DP  RH WIND       PRES   REMARKS
NORTH PLATTE   SUNNY     67  63  87 E7        30.08R
IMPERIAL       SUNNY     67  62  84 S10       30.07S
LEXINGTON      CLOUDY    68  63  84 SE5       30.08R
MCCOOK         CLOUDY    67  63  87 S9        30.06F
OGALLALA       PTSUNNY   65  64  94 CALM      30.08R
$$

NEZ005>010-023>029-035>040-094-281400-
NORTH CENTRAL NEBRASKA

CITY           SKY/WX    TMP DP  RH WIND       PRES   REMARKS
VALENTINE      PTSUNNY   69  60  73 E7        30.09S
AINSWORTH      CLOUDY    66  65  94 E3        30.11R
BROKEN BOW     CLOUDY    67  63  87 SE5       30.09R
O`NEILL        PTSUNNY   67  65  93 E5        30.10S
ORD            CLOUDY    67  63  87 E5        30.07S
THEDFORD       SUNNY     68  64  85 E5        30.11R
$$

NEZ041-046>049-061>064-073>077-083>087-281400-
SOUTH CENTRAL NEBRASKA

CITY           SKY/WX    TMP DP  RH WIND       PRES   REMARKS
GRAND ISLAND   SUNNY     66  65  96 E5        30.08R FOG
AURORA         MOSUNNY   65  65  97 E3        30.08S
HASTINGS       SUNNY     67  63  87 E3        30.08F
HEBRON         SUNNY     67  64  88 CALM      30.06S
HOLDREGE       SUNNY     65  63  93 SE5       30.07F
KEARNEY        SUNNY     66  64  94 E7        30.07F FOG
YORK           PTSUNNY   64  64 100 CALM      30.08R
$$

NEZ011>018-030>034-042>045-281400-
NORTHEAST NEBRASKA

CITY           SKY/WX    TMP DP  RH WIND       PRES   REMARKS
NORFOLK        CLOUDY    68  63  84 SE5       30.07R
ALBION         CLOUDY    68  65  89 E5        30.08S
BLAIR          MOSUNNY   68  65  91 NE6       30.07R
COLUMBUS       CLOUDY    67  65  93 MISG      30.09R
FREMONT        CLOUDY    68  65  91 NE3       30.07S
TEKAMAH        CLOUDY    67  64  90 N3        30.06R
WAYNE          PTSUNNY   65  65  99 CALM      30.08S
$$

NEZ050>053-065>068-078-088>093-281400-
SOUTHEAST NEBRASKA

CITY           SKY/WX    TMP DP  RH WIND       PRES   REMARKS
LINCOLN        MOSUNNY   68  64  87 N5        30.06R
OMAHA EPPLEY   PTSUNNY   68  64  87 N7        30.06R
BEATRICE       SUNNY     67  64  89 NE5       30.05R
FALLS CITY     SUNNY     70  64  81 NE5       30.01S
NEBRASKA CITY  SUNNY     68  68  99 NE5       30.05R
PLATTSMOUTH    MOSUNNY   67  64  90 CALM      30.06R
$$

NEZ044-045-051>053-067-281400-
OMAHA AREA

CITY           SKY/WX    TMP DP  RH WIND       PRES   REMARKS
OMAHA EPPLEY   PTSUNNY   68  64  87 N7        30.06R
BLAIR          MOSUNNY   68  65  91 NE6       30.07R
FREMONT        CLOUDY    68  65  91 NE3       30.07S
MILLARD        SUNNY     71  66  84 CALM      30.06S
OFFUTT AFB     SUNNY     67  63  86 N3        30.05R
PLATTSMOUTH    MOSUNNY   67  64  90 CALM      30.06R
WAHOO          FAIR      68  66  93 NE5       30.06F
$$




USA.gov is the U.S. government's official web portal to all federal, state and local government web resources and services.